COSMOS 768

Satellite information

Favourite Embed

Satellite Type and Status

PAYLOADIN ORBIT

Key statistics

Satellite COSMOS 768 at a glance.

Uptime

18306

Days in orbit

Revolutions

≈ 12.5

Per day

Orbit

LEO

Low Earth Orbit

Inclination

74.0

Latest

Satellite identification and parameters

Extended collection of information and parameters for COSMOS 768.

Object identification

Identified? True

Debris? False

Object name: COSMOS 768

International designator: 1975-086H

Object number (NORAD): 8292

Object ID (CCSDS): 8292

Country: COMMONWEALTH OF INDEPENDENT STATES (CIS)

Current information (Y/N): Y

RCS size: MEDIUM

Orbital parameters

Period: 115.56 minutes

Inclination: 74.0107 deg

SMA: 7858.94 km

Apoapsis: 1491.524 km

Periapsis: 1470.085 km

RAAN: 59.7922 deg

Eccentricy: 0.00136397

Argument of periapsis: 277.8139 deg

Mean anomaly: 148.2037 deg

Mean motion: 12.4611129 rev/day

Mean motion (dot): -0.00000002 rev/day2

B* drag term: 0.000094869496 1/REarth

Two-line elements (TLE)

Creation date: Oct. 28, 2025, 7:11 p.m.

Reference frame: TEME

Reference center: EARTH

Epoch: Oct. 28, 2025, 10:57 a.m. UTC

TLE line 0: 0 COSMOS 768

TLE line 1: 1 08292U 75086H 25301.45686086 -.00000002 00000-0 94869-4 0 9994

TLE line 2: 2 08292 74.0107 59.7922 0013640 277.8139 148.2037 12.46111290279636

Live tracking on map

Real-time ground track for satellite COSMOS 768.

In-orbit conjunctions

There are no conjunctions computed for COSMOS 768, at the moment. Check back to stay up to date, as we update our databases every day.

Go to all conjunctions

Associated space launch

Military communications satellites

COSMOS 768 was lifted into orbit during the mission ‘Kosmos-3M | Strela-1M 97-104’, on board a Kosmos-3M space rocket.

The launch took place on Sept. 17, 1975, 7:10 a.m. from 132/1 (132L).

For more information about the launch, click the button.

Launch to space Kosmos-3M | Strela-1M 97-104
Kosmos-3M | Strela-1M 97-104

Agency: N/A

Status: Launch Successful

Launch date: Sept. 17, 1975, 7:10 a.m. UTC

Rocket: Kosmos-3M

Launch pad: 132/1 (132L)

Location: Plesetsk Cosmodrome, Russian Federation

...

Latest news about this satellite

There are no fresh news available about this satellite. Check back as we update our databases every day.


Newsletter sign-up

Weekly statistics, charts and insights to help you stay on top of the space industry.